TimeEST,TemperatureF,Dew PointF,Humidity,Sea Level PressureIn,VisibilityMPH,Wind Direction,Wind SpeedMPH,Gust SpeedMPH,PrecipitationIn,Events,Conditions,WindDirDegrees,DateUTC
12:31 AM,33.8,26.6,75,30.26,10.0,WNW,5.8,-,N/A,,Overcast,290,2013-01-07 05:31:00
12:51 AM,33.8,26.6,75,30.26,10.0,West,4.6,-,N/A,,Overcast,280,2013-01-07 05:51:00
1:11 AM,33.8,28.4,81,30.26,10.0,West,3.5,-,N/A,,Overcast,280,2013-01-07 06:11:00
1:51 AM,33.8,28.4,81,30.28,10.0,WNW,4.6,-,N/A,,Overcast,290,2013-01-07 06:51:00
2:11 AM,33.8,26.6,75,30.29,10.0,West,3.5,-,N/A,,Overcast,280,2013-01-07 07:11:00
2:31 AM,33.8,28.4,81,30.30,10.0,WNW,3.5,-,N/A,,Overcast,290,2013-01-07 07:31:00
2:51 AM,33.8,28.4,81,30.31,10.0,Calm,Calm,-,N/A,,Overcast,0,2013-01-07 07:51:00
3:12 AM,33.8,26.6,75,30.30,10.0,Calm,Calm,-,N/A,,Overcast,0,2013-01-07 08:12:00
3:32 AM,32.0,26.6,80,30.30,10.0,Calm,Calm,-,N/A,,Overcast,0,2013-01-07 08:32:00
3:52 AM,30.2,26.6,86,30.30,10.0,Calm,Calm,-,N/A,,Overcast,0,2013-01-07 08:52:00
4:12 AM,28.4,26.6,93,30.31,7.0,Calm,Calm,-,N/A,,Overcast,0,2013-01-07 09:12:00
4:32 AM,30.2,26.6,86,30.32,10.0,West,3.5,-,N/A,,Overcast,270,2013-01-07 09:32:00
4:52 AM,32.0,26.6,80,30.32,10.0,Calm,Calm,-,N/A,,Overcast,0,2013-01-07 09:52:00
5:12 AM,32.0,26.6,80,30.33,10.0,Calm,Calm,-,N/A,,Overcast,0,2013-01-07 10:12:00
5:32 AM,32.0,26.6,80,30.33,10.0,Calm,Calm,-,N/A,,Overcast,0,2013-01-07 10:32:00
5:52 AM,32.0,26.6,80,30.33,10.0,WSW,3.5,-,N/A,,Overcast,240,2013-01-07 10:52:00
6:13 AM,32.0,26.6,80,30.34,10.0,SW,3.5,-,N/A,,Overcast,230,2013-01-07 11:13:00
6:33 AM,33.8,26.6,75,30.34,10.0,SW,4.6,-,N/A,,Overcast,220,2013-01-07 11:33:00
7:33 AM,30.2,24.8,80,30.35,10.0,WSW,5.8,-,N/A,,Overcast,240,2013-01-07 12:33:00
7:53 AM,30.2,24.8,80,30.36,10.0,SW,6.9,-,N/A,,Overcast,230,2013-01-07 12:53:00
8:13 AM,28.4,23.0,80,30.37,10.0,SW,3.5,-,N/A,,Scattered Clouds,230,2013-01-07 13:13:00
8:33 AM,30.2,23.0,75,30.38,10.0,SW,4.6,-,N/A,,Scattered Clouds,230,2013-01-07 13:33:00
8:53 AM,30.2,23.0,75,30.37,10.0,Calm,Calm,-,N/A,,Scattered Clouds,0,2013-01-07 13:53:00
9:13 AM,30.2,24.8,80,30.38,10.0,SSW,5.8,-,N/A,,Clear,210,2013-01-07 14:13:00
9:34 AM,32.0,24.8,75,30.38,10.0,SW,6.9,-,N/A,,Clear,220,2013-01-07 14:34:00
9:54 AM,33.8,24.8,70,30.38,10.0,SW,6.9,-,N/A,,Clear,220,2013-01-07 14:54:00
10:14 AM,33.8,26.6,75,30.38,10.0,SW,9.2,-,N/A,,Clear,220,2013-01-07 15:14:00
10:34 AM,33.8,26.6,75,30.39,10.0,SW,13.8,18.4,N/A,,Clear,220,2013-01-07 15:34:00
10:54 AM,33.8,26.6,75,30.38,10.0,SW,11.5,-,N/A,,Clear,220,2013-01-07 15:54:00
11:14 AM,33.8,26.6,75,30.37,7.0,SW,8.1,16.1,N/A,,Clear,220,2013-01-07 16:14:00
11:34 AM,35.6,26.6,70,30.36,10.0,SW,10.4,-,N/A,,Clear,230,2013-01-07 16:34:00
11:54 AM,35.6,26.6,70,30.35,10.0,WSW,10.4,-,N/A,,Clear,240,2013-01-07 16:54:00
12:14 PM,35.6,26.6,70,30.34,10.0,SW,11.5,-,N/A,,Clear,230,2013-01-07 17:14:00
12:35 PM,35.6,26.6,70,30.32,10.0,SSW,11.5,-,N/A,,Clear,210,2013-01-07 17:35:00
12:55 PM,37.4,26.6,65,30.31,10.0,SW,16.1,-,N/A,,Clear,220,2013-01-07 17:55:00
1:15 PM,35.6,26.6,70,30.30,10.0,SW,12.7,18.4,N/A,,Clear,220,2013-01-07 18:15:00
1:35 PM,37.4,26.6,65,30.30,10.0,SSW,10.4,-,N/A,,Clear,210,2013-01-07 18:35:00
1:55 PM,37.4,26.6,65,30.29,10.0,SSW,12.7,16.1,N/A,,Clear,210,2013-01-07 18:55:00
2:15 PM,37.4,26.6,65,30.28,10.0,SSW,11.5,19.6,N/A,,Clear,200,2013-01-07 19:15:00
2:35 PM,35.6,26.6,70,30.28,10.0,SSW,13.8,18.4,N/A,,Clear,200,2013-01-07 19:35:00
2:55 PM,35.6,26.6,70,30.26,10.0,SSW,12.7,18.4,N/A,,Clear,210,2013-01-07 19:55:00
3:15 PM,35.6,26.6,70,30.25,10.0,SSW,11.5,19.6,N/A,,Clear,200,2013-01-07 20:15:00
3:36 PM,35.6,26.6,70,30.25,10.0,SSW,18.4,23.0,N/A,,Clear,200,2013-01-07 20:36:00
3:51 PM,35.6,26.6,70,30.25,10.0,SSW,15.0,24.2,N/A,,Clear,210,2013-01-07 20:51:00
4:11 PM,35.6,26.6,70,30.25,10.0,SSW,11.5,19.6,N/A,,Clear,200,2013-01-07 21:11:00
4:31 PM,35.6,26.6,70,30.25,10.0,South,12.7,-,N/A,,Clear,190,2013-01-07 21:31:00
4:51 PM,33.8,26.6,75,30.24,10.0,SSW,9.2,-,N/A,,Clear,200,2013-01-07 21:51:00
5:11 PM,33.8,26.6,75,30.23,10.0,SSW,13.8,18.4,N/A,,Clear,200,2013-01-07 22:11:00
5:31 PM,33.8,26.6,75,30.23,10.0,SSW,9.2,-,N/A,,Clear,200,2013-01-07 22:31:00
5:51 PM,33.8,26.6,75,30.23,10.0,SSW,9.2,-,N/A,,Clear,200,2013-01-07 22:51:00
6:11 PM,33.8,26.6,75,30.23,10.0,SSW,11.5,-,N/A,,Clear,200,2013-01-07 23:11:00
6:32 PM,33.8,26.6,75,30.23,10.0,SSW,9.2,-,N/A,,Clear,210,2013-01-07 23:32:00
6:52 PM,32.0,26.6,80,30.23,10.0,SSW,10.4,-,N/A,,Clear,200,2013-01-07 23:52:00
7:12 PM,32.0,26.6,80,30.22,10.0,SSW,12.7,-,N/A,,Clear,200,2013-01-08 00:12:00
7:32 PM,30.2,26.6,86,30.21,7.0,SSW,11.5,-,N/A,,Clear,200,2013-01-08 00:32:00
7:52 PM,30.2,26.6,86,30.21,7.0,SSW,11.5,16.1,N/A,,Clear,200,2013-01-08 00:52:00
8:12 PM,30.2,26.6,86,30.20,7.0,SSW,9.2,-,N/A,,Clear,210,2013-01-08 01:12:00
8:32 PM,30.2,26.6,86,30.19,10.0,SSW,9.2,-,N/A,,Clear,200,2013-01-08 01:32:00
8:52 PM,30.2,26.6,86,30.20,10.0,SW,6.9,-,N/A,,Clear,220,2013-01-08 01:52:00
9:12 PM,30.2,24.8,80,30.19,7.0,SSW,4.6,-,N/A,,Clear,200,2013-01-08 02:12:00
9:32 PM,28.4,24.8,86,30.19,7.0,South,5.8,-,N/A,,Clear,190,2013-01-08 02:32:00
9:53 PM,30.2,24.8,80,30.18,7.0,SSW,8.1,-,N/A,,Clear,200,2013-01-08 02:53:00
10:33 PM,30.2,24.8,80,30.17,7.0,SW,6.9,-,N/A,,Clear,220,2013-01-08 03:33:00
10:53 PM,28.4,24.8,86,30.16,7.0,SSW,9.2,-,N/A,,Clear,200,2013-01-08 03:53:00
11:13 PM,30.2,24.8,80,30.16,10.0,SSW,10.4,-,N/A,,Clear,200,2013-01-08 04:13:00
11:53 PM,30.2,24.8,80,30.16,10.0,SSW,10.4,-,N/A,,Clear,210,2013-01-08 04:53:00